This is the latest recevied weather packets stored in our database for station/object HB9HFD-13. If no packets are shown the sender has not sent any weather packets the latest 10 day(s).
| Time | Temp. | Humidity | Pressure | Rain* | Wind** | Luminosity | Snow |
|---|---|---|---|---|---|---|---|
| 1787472046 | 19.44° C | 59% | 1019.5 hPa | 0 mm | - | - | - |
| 1787471746 | 18.89° C | 60% | 1019.5 hPa | 0 mm | - | - | - |
| 1787471445 | 18.89° C | 62% | 1019.4 hPa | 0 mm | - | - | - |
| 1787471145 | 18.33° C | 62% | 1019.6 hPa | 0 mm | - | - | - |
| 1787470845 | 18.33° C | 62% | 1019.6 hPa | 0 mm | - | - | - |
| 1787470545 | 18.33° C | 63% | 1019.6 hPa | 0 mm | - | - | - |
| 1787470244 | 17.78° C | 64% | 1019.6 hPa | 0 mm | - | - | - |
| 1787469944 | 17.78° C | 65% | 1019.7 hPa | 0 mm | - | - | - |
| 1787469643 | 17.78° C | 66% | 1019.6 hPa | 0 mm | - | - | - |
| 1787469343 | 17.22° C | 66% | 1019.7 hPa | 0 mm | - | - | - |
| 1787469043 | 17.22° C | 66% | 1019.7 hPa | 0 mm | - | - | - |
| 1787468743 | 17.22° C | 67% | 1019.8 hPa | 0 mm | - | - | - |
| 1787468442 | 16.67° C | 67% | 1019.8 hPa | 0 mm | - | - | - |
| 1787468142 | 16.67° C | 67% | 1019.8 hPa | 0 mm | - | - | - |
| 1787467842 | 16.67° C | 67% | 1019.8 hPa | 0 mm | - | - | - |
| 1787467542 | 16.67° C | 68% | 1020 hPa | 0 mm | - | - | - |
| 1787467241 | 16.11° C | 68% | 1020 hPa | 0 mm | - | - | - |
| 1787466941 | 16.11° C | 68% | 1019.9 hPa | 0 mm | - | - | - |
| 1787466641 | 16.11° C | 69% | 1019.9 hPa | 0 mm | - | - | - |
| 1787466341 | 15.56° C | 70% | 1020 hPa | 0 mm | - | - | - |
| 1787466040 | 15.56° C | 71% | 1019.9 hPa | 0 mm | - | - | - |
| 1787465740 | 15° C | 72% | 1019.8 hPa | 0 mm | - | - | - |
| 1787465440 | 15° C | 73% | 1019.8 hPa | 0 mm | - | - | - |
| 1787465139 | 15° C | 74% | 1019.8 hPa | 0 mm | - | - | - |
| 1787464839 | 14.44° C | 75% | 1019.7 hPa | 0 mm | - | - | - |
* Rain latest hour (hover to see other rain measurements)
** Current wind speed in m/s (hover to see current wind gust speed)